Regional Weather Roundup
Issued by NWS

Home | Current Version | Previous Version | Text Only | Print | Product List | Glossary On
Versions: 1 2 3 4 5 6 7 8 9 10 11 12 13 14 15 16 17 18 19 20 21 22 23 24 25 26 27 28 29 30 31 32 33 34 35 36 37 38 39 40 41 42 43 44 45 46 47 48 49 50
000
ASUS45 KREV 190210
RWRNV
NEVADA REGIONAL WEATHER ROUNDUP
NATIONAL WEATHER SERVICE RENO NV
600 PM PST THU DEC 18 2014

NOTE: "FAIR" INDICATES FEW OR NO CLOUDS BELOW 12,000 FEET WITH NO
SIGNIFICANT WEATHER AND/OR OBSTRUCTIONS TO VISIBILITY.

NVZ001-003-004-190300-
WESTERN NEVADA

CITY           SKY/WX    TMP DP  RH WIND       PRES   REMARKS
RENO           PTCLDY    43  32  65 NE6       30.11S
CARSON CITY    FAIR      41  25  52 CALM      30.12R
MINDEN         FAIR      30  21  69 SE7       30.13
SLIDE MTN        N/A     25  23  93 NW6         N/A
PYRAMID LAKE     N/A     41 N/A N/A W7          N/A
FALLON         MOCLDY    40  26  57 S7        30.12S
LOVELOCK       CLEAR     35  26  69 SE7       30.12S
HAWTHORNE      CLEAR     41  30  65 SE6       30.14R
$$

NVZ002-CAZ072-073-190300-
NORTHERN AND CENTRAL SIERRA

CITY           SKY/WX    TMP DP  RH WIND       PRES   REMARKS
S. LAKE TAHOE  PTCLDY    33  26  75 CALM      30.13R
TRUCKEE        PTCLDY    32  28  86 CALM      30.15R
SQUAW VLY 8000   N/A     28  30 100 VRB15       N/A
BLUE CANYON    CLOUDY    37  34  89 CALM      30.17R
MAMMOTH LAKES  FAIR      25  21  86 CALM      30.19R
BRIDGEPORT     FAIR      33  19  56 CALM      30.11R
$$

NVZ030-031-036-190300-
NORTHERN NEVADA

CITY           SKY/WX    TMP DP  RH WIND       PRES   REMARKS
ELKO           CLOUDY    32  28  85 CALM      30.14R
WINNEMUCCA     MOCLDY    38  29  70 S7        30.13R
WENDOVER       PTCLDY    32  27  80 CALM      30.17R
$$

NVZ035-037-190300-
CENTRAL NEVADA

CITY           SKY/WX    TMP DP  RH WIND       PRES   REMARKS
ELY            CLEAR     29  23  78 CALM      30.16R
EUREKA           N/A     28  24  85 S7        30.15R
$$

NVZ013-014-190300-
SOUTH CENTRAL NEVADA

CITY           SKY/WX    TMP DP  RH WIND       PRES   REMARKS
TONOPAH        CLEAR     33  25  72 W5        30.18R
$$

NVZ017-020-022-190300-
SOUTHERN NEVADA

CITY           SKY/WX    TMP DP  RH WIND       PRES   REMARKS
LAS VEGAS      CLEAR     52  38  58 S6        30.15R
N. LAS VEGAS   CLEAR     50  38  63 SE5       30.18R
NELLIS AFB     CLEAR     50  40  70 NE5       30.19R
HENDERSON      CLEAR     48  38  68 E3        30.20R
MERCURY        CLEAR     44  38  79 CALM      30.18
$$


USA.gov is the U.S. government's official web portal to all federal, state and local government web resources and services.